TimeEDT,TemperatureF,Dew PointF,Humidity,Sea Level PressureIn,VisibilityMPH,Wind Direction,Wind SpeedMPH,Gust SpeedMPH,PrecipitationIn,Events,Conditions,WindDirDegrees,DateUTC
12:15 AM,32.0,30.2,93,30.08,2.5,West,10.4,16.1,0.00,Snow,Light Snow,270,2013-03-28 04:15:00
12:24 AM,32.0,30.2,93,30.08,3.0,West,8.1,-,0.00,Snow,Light Snow,270,2013-03-28 04:24:00
12:53 AM,32.0,30.9,96,30.10,2.5,West,8.1,-,0.01,Snow,Light Snow,270,2013-03-28 04:53:00
1:19 AM,32.0,30.2,93,30.08,3.0,WNW,5.8,-,0.00,Snow,Light Snow,290,2013-03-28 05:19:00
1:53 AM,32.0,30.9,96,30.11,3.0,West,6.9,-,0.00,Snow,Light Snow,280,2013-03-28 05:53:00
2:00 AM,32.0,30.2,93,30.08,2.5,WNW,8.1,-,0.00,Snow,Light Snow,290,2013-03-28 06:00:00
2:10 AM,32.0,30.2,93,30.09,4.0,WNW,5.8,-,0.00,Snow,Light Snow,290,2013-03-28 06:10:00
2:18 AM,32.0,30.2,93,30.09,5.0,West,6.9,-,0.00,Snow,Light Snow,280,2013-03-28 06:18:00
2:53 AM,32.0,30.9,96,30.12,9.0,West,5.8,-,0.00,,Overcast,280,2013-03-28 06:53:00
3:25 AM,32.0,30.2,93,30.09,10.0,West,6.9,-,N/A,,Overcast,280,2013-03-28 07:25:00
3:32 AM,32.0,30.2,93,30.09,8.0,West,5.8,-,0.00,Snow,Light Snow,280,2013-03-28 07:32:00
3:53 AM,32.0,30.9,96,30.12,10.0,West,6.9,-,0.00,,Overcast,270,2013-03-28 07:53:00
4:53 AM,32.0,30.9,96,30.12,9.0,West,5.8,-,N/A,,Overcast,260,2013-03-28 08:53:00
5:04 AM,32.0,30.2,93,30.10,9.0,West,5.8,-,N/A,,Overcast,260,2013-03-28 09:04:00
5:38 AM,32.0,30.2,93,30.10,10.0,WSW,8.1,-,N/A,,Overcast,250,2013-03-28 09:38:00
5:53 AM,32.0,30.9,96,30.13,9.0,WSW,8.1,-,N/A,,Overcast,250,2013-03-28 09:53:00
6:53 AM,32.0,30.9,96,30.14,7.0,West,4.6,-,N/A,,Overcast,280,2013-03-28 10:53:00
7:53 AM,33.1,30.9,92,30.16,2.5,WSW,6.9,-,0.00,Snow,Light Snow,250,2013-03-28 11:53:00
8:05 AM,33.8,30.2,87,30.14,4.0,WSW,8.1,-,0.00,Snow,Light Snow,250,2013-03-28 12:05:00
8:53 AM,33.1,30.9,92,30.17,5.0,West,8.1,-,0.00,Snow,Light Snow,260,2013-03-28 12:53:00
9:32 AM,33.8,32.0,93,30.15,2.5,West,5.8,-,0.00,Snow,Light Snow,260,2013-03-28 13:32:00
9:44 AM,33.8,32.0,93,30.15,4.0,West,5.8,-,0.00,Snow,Light Snow,270,2013-03-28 13:44:00
9:53 AM,34.0,32.0,92,30.18,4.0,West,8.1,-,0.00,Snow,Light Snow,270,2013-03-28 13:53:00
10:53 AM,35.1,33.1,92,30.19,10.0,West,5.8,-,0.00,,Overcast,260,2013-03-28 14:53:00
11:53 AM,35.1,32.0,89,30.21,10.0,WSW,8.1,-,N/A,,Overcast,250,2013-03-28 15:53:00
12:53 PM,36.0,32.0,86,30.21,10.0,WSW,6.9,-,N/A,,Overcast,240,2013-03-28 16:53:00
1:07 PM,37.4,32.0,81,30.19,10.0,WSW,8.1,-,N/A,,Overcast,250,2013-03-28 17:07:00
1:18 PM,37.4,32.0,81,30.19,10.0,WSW,10.4,-,N/A,,Overcast,240,2013-03-28 17:18:00
1:36 PM,37.4,30.2,75,30.19,10.0,WSW,8.1,-,N/A,,Overcast,240,2013-03-28 17:36:00
1:53 PM,37.0,32.0,82,30.21,10.0,SW,9.2,-,N/A,,Overcast,220,2013-03-28 17:53:00
2:53 PM,37.9,32.0,79,30.20,10.0,WSW,9.2,-,N/A,,Overcast,240,2013-03-28 18:53:00
3:53 PM,37.9,32.0,79,30.21,10.0,WSW,11.5,-,N/A,,Overcast,240,2013-03-28 19:53:00
4:01 PM,37.4,32.0,81,30.18,10.0,SW,12.7,-,N/A,,Overcast,230,2013-03-28 20:01:00
4:28 PM,37.4,32.0,81,30.18,10.0,WSW,11.5,18.4,N/A,,Overcast,240,2013-03-28 20:28:00
4:53 PM,37.0,32.0,82,30.21,10.0,WSW,8.1,-,N/A,,Overcast,240,2013-03-28 20:53:00
5:53 PM,36.0,30.9,82,30.22,10.0,SW,13.8,18.4,N/A,,Overcast,230,2013-03-28 21:53:00
6:53 PM,35.1,30.0,82,30.23,10.0,SW,12.7,20.7,N/A,,Overcast,230,2013-03-28 22:53:00
7:53 PM,35.1,30.0,82,30.24,10.0,SW,12.7,20.7,N/A,,Overcast,230,2013-03-28 23:53:00
8:53 PM,35.1,28.9,78,30.25,10.0,SW,12.7,-,N/A,,Overcast,230,2013-03-29 00:53:00
9:53 PM,35.1,30.0,82,30.26,10.0,SW,10.4,-,0.00,,Overcast,230,2013-03-29 01:53:00
10:27 PM,35.6,30.2,81,30.23,10.0,SW,9.2,-,N/A,,Overcast,230,2013-03-29 02:27:00
10:36 PM,35.6,30.2,81,30.23,10.0,SW,8.1,-,N/A,,Overcast,230,2013-03-29 02:36:00
10:53 PM,35.1,30.0,82,30.25,10.0,WSW,6.9,-,N/A,,Overcast,240,2013-03-29 02:53:00
11:53 PM,35.1,30.0,82,30.25,10.0,SW,9.2,-,N/A,,Overcast,220,2013-03-29 03:53:00